Flag for U.S.A. Weather past 2 weeks in Sheboygan, Wisconsin, U.S.A.

Now
37 °F

Sunny.


Feels Like: 30 °F
Forecast: 32 / 43 °F
Wind: 10 mph from Southeast

Location: Sheboygan County Memorial Airport


UV Index: 5 (Moderate)

Visibility: 10 mi


Pressure: 30.45 "Hg

Humidity: 73%

Dew point: 29 °F

Location of SheboyganLocation

Historic Weather in Sheboygan

°F

Sheboygan temperature yesterday

Maximum temperature yesterday: 44 °F (at 11:53 AM)
Minimum temperature yesterday: 31 °F (at 9:53 PM)
Average temperature yesterday: 37 °F

Past Weeks' High & Low Weather Summary

 TemperatureHumidityPressure
High61 °F (Apr 10, 5:53 PM)100% (Apr 4, 8:53 AM)30.47 "Hg (Apr 4, 8:53 AM)
Low20 °F (Apr 15, 4:53 AM)20% (Apr 10, 4:53 PM)29.43 "Hg (Apr 4, 10:01 AM)
Average40 °F72%29.96 "Hg
* Reported Apr 4 8:53 AM — Apr 19 8:53 AM, Sheboygan, Weather by CustomWeather, © 2014

Note: Actual official high and low records may vary slightly from our data, if they occured in-between our weather recording intervals... More about our weather records

Advertising

Historic Weather Conditions — Data for Previous 24 hours

 ConditionsComfort  
Time TempWeatherWind HumidityBarometerVisibility
8:53 AM
Apr 19
37 °FSunny.10 mph73%30.45 "Hg10 mi
7:53 AM35 °FSunny.8 mph75%30.47 "Hg10 mi
6:53 AM32 °FClear.7 mph85%30.46 "Hg10 mi
5:53 AM31 °FClear.6 mph85%30.45 "Hg10 mi
4:53 AM32 °FClear.7 mph82%30.45 "Hg10 mi
3:53 AM33 °FClear.7 mph78%30.45 "Hg10 mi
2:53 AM33 °FClear.7 mph78%30.44 "Hg10 mi
1:53 AM31 °FClear.6 mph85%30.43 "Hg10 mi
12:53 AM32 °FClear.7 mph82%30.42 "Hg10 mi
11:53 PM
Apr 18
32 °FClear.8 mph79%30.42 "Hg10 mi
10:53 PM31 °FClear.7 mph79%30.42 "Hg10 mi
9:53 PM31 °FClear.5 mph82%30.42 "Hg10 mi
8:53 PM32 °FClear.5 mph79%30.42 "Hg10 mi
7:53 PM35 °FSunny.8 mph70%30.41 "Hg10 mi
6:53 PM36 °FSunny.10 mph70%30.41 "Hg10 mi
5:53 PM38 °FSunny.8 mph65%30.40 "Hg10 mi
4:53 PM40 °FSunny.10 mph63%30.40 "Hg10 mi
3:53 PM42 °FSunny.10 mph65%30.39 "Hg10 mi
2:53 PM42 °FSunny.12 mph65%30.39 "Hg10 mi
1:53 PM44 °FSunny.9 mph65%30.38 "Hg10 mi
12:53 PM44 °FScattered clouds.8 mph65%30.37 "Hg10 mi
11:53 AM44 °FPartly sunny.N/A58%30.39 "Hg10 mi
10:53 AM40 °FOvercast.5 mph68%30.39 "Hg10 mi
Weather by CustomWeather, © 2014

See weather overview